星链-35280(STARLINK-35280)

导读

STARLINK-35280是美国SpaceX星链计划中的一颗卫星,于2025年10月16日发射升空。作为星链星座组网的一部分,它主要用于提供全球范围的高速互联网服务,尤其可以覆盖偏远地区,填补网络覆盖空白,该卫星入轨后将进一步扩充星链星座规模,提升系统服务稳定性与覆盖能力。

Basic Information
目录编号:
66025
目录名称:
STARLINK-35280
国际标识:
2025-232W
轨道中心:
EARTH
卫星名称:
星链-35280
卫星全名:
星链-35280(STARLINK-35280)
卫星状态:
在轨 (已飞行323 天)
发射日期:
2025-10-16 UTC
国别 :
美国 (US)
星等 :
--
Orbit Information
数据来源 国际轨道数据
星历时间: 2026-09-04T03:02:35+0800
8小时前
查看轨道信息
半长轴: 6840.85km
偏心率: 0.0001397
轨道倾角: 53.162°
近地点辐角 99.871°
升交点赤经 355.950°
平近点角 260.245°
近地点: 461.757km
远地点: 463.669km
周期: 93.848分钟
每日圈数: 15.34397
Detailed Information
固有亮度:
5
最大亮度:
2.5
卫星平台:
Starlink V1.0
覆盖范围:
全球
运营商:
太空探索技术公司
运营商所在国:
美国
制造商(研发单位):
太空探索技术公司
制造商所在国:
美国
使用方式:
暂无
Satellite Introduction
Starlink 计划是 SpaceX 推出的全球卫星互联网项目,通过发射低轨道卫星,为全球尤其是偏远地区提供高速、低延迟的互联网服务。自 2019 年起,Starlink 已部署数千颗卫星,旨在缩小全球数字鸿沟,推动互联网普及。该项目还为军事、航空等行业提供通信支持,带来广泛经济效益。
2D Orbit Map
3D Orbit Map
Orbit Altitude Analysis Chart
Orbit Inclination Analysis Chart
Orbit Comprehensive Analysis Chart
View Comprehensive Chart
Conjunction Data List
Event ID Objects TCA Miss Dist (km) Collision Risk Probability Collision Risk Index (CRI) Action
CDM_260905-002706-472406-602521
2026-09-05T
00:27:23+0000
0.389 km
远距离
2.383977E-4 高风险 0.83
CDM_260904-174206-091906-602521
2026-09-04T
17:42:10+0000
0.719 km
远距离
6.963239E-5 中风险 0.72
CDM_260904-022105-287906-602522
2026-09-04T
02:21:30+0000
0.673 km
远距离
6.04678E-5 中风险 0.71
CDM_260905-001706-602506-615921
2026-09-05T
00:17:20+0000
0.747 km
远距离
3.164824E-5 中风险 0.65
CDM_260904-133006-602506-807421
2026-09-04T
13:30:32+0000
0.864 km
远距离
2.684925E-5 中风险 0.64
CDM_260905-085306-602506-615921
2026-09-05T
08:53:09+0000
0.804 km
远距离
2.496843E-5 中风险 0.63
CDM_260904-014706-602506-807421
2026-09-04T
01:47:07+0000
0.931 km
远距离
2.088247E-5 中风险 0.61
CDM_260904-205405-894806-602521
2026-09-04T
20:54:49+0000
1.092 km
极远距离
1.723218E-5 中风险 0.6
CDM_260905-031005-893806-602521
2026-09-05T
03:10:23+0000
1.170 km
极远距离
1.349483E-5 中风险 0.58
CDM_260904-141706-472406-602521
2026-09-04T
14:17:46+0000
1.239 km
极远距离
7.989656E-6 低风险 0.53